Temperature
18 18 18 18 18 18 18 18 18 18 18 18 18 18 18 18 18 18 18 18 18 18 18 18 18 18 18 18 18 18 17 17 17 18 17 17 17 17 17 17 17 17 18
18 18 18 18 18 18 18 18 18 18 18 18 18 18 18 18 17 17 17 17 17 17 17 17 17 17 18 18 17 17 17 17 17 17 17 17 17 17 17 17 17 17 17
18 18 18 18 18 18 18 17 17 17 17 17 17 17 17 17 17 17 17 17 17 17 17 17 17 17 17 17 17 17 17 17 17 17 17 17 17 17 17 17 17 17 17
18 18 18 18 17 17 17 17 17 17 17 17 17 17 17 17 17 17 17 17 17 17 17 17 17 17 17 17 17 17 17 17 17 17 17 17 17 17 17 17 17 17 17
18 18 18 17 17 17 17 17 17 17 17 17 17 17 17 17 17 17 17 17 17 17 17 17 17 17 17 17 17 17 17 17 17 17 17 17 17 17 17 17 17 17 17
18 18 17 17 17 17 17 17 17 17 17 17 17 17 17 17 17 17 17 17 17 17 17 17 17 17 17 17 17 17 17 17 17 17 17 17 17 17 17 17 17 17 17
18 18 17 17 17 17 17 17 17 17 17 17 17 17 17 17 17 17 16 17 17 17 17 17 17 17 17 17 16 16 16 16 16 16 16 16 16 16 16 16 16 16 16
18 18 17 17 17 17 17 17 17 17 17 17 17 17 17 16 16 16 16 16 16 16 16 16 16 16 16 16 16 16 16 16 16 16 16 16 16 16 16 16 16 16 16
18 18 17 17 17 17 17 17 17 16 16 16 16 16 16 16 16 16 16 16 16 16 16 16 16 16 16 16 16 16 16 16 16 16 16 16 16 16 16 16 16 16 16
18 17 17 17 17 17 17 17 16 16 16 16 16 16 16 16 16 16 16 16 16 16 16 16 16 16 16 16 16 16 16 16 16 16 16 16 16 16 16 16 16 16 16
18 17 17 17 17 17 17 16 16 16 16 16 16 16 16 16 16 16 16 16 16 16 16 16 16 16 16 16 16 16 16 16 16 16 16 16 16 16 16 16 16 16 16
18 17 17 17 17 17 16 16 16 16 16 16 16 16 16 16 16 16 16 16 16 16 16 16 16 16 16 16 16 16 16 16 16 16 15 15 15 15 16 16 16 15 15
18 17 17 17 17 17 16 16 16 16 16 16 16 16 16 16 16 16 16 16 16 16 16 16 16 16 16 16 15 15 15 15 15 15 15 15 15 15 15 15 15 15 15
17 17 17 17 17 17 16 16 16 16 16 16 16 16 16 16 16 16 16 16 16 16 16 16 15 15 15 15 15 15 15 15 15 15 15 15 15 15 15 15 15 15 15
17 17 17 17 17 17 16 16 16 16 16 16 16 16 16 16 16 16 15 15 15 15 15 15 15 15 15 15 15 15 15 15 15 15 15 15 15 15 15 15 15 15 15
18 17 17 17 17 16 16 16 16 16 16 16 16 16 16 16 15 15 15 15 15 15 15 15 15 15 15 15 15 15 15 15 15 15 15 15 15 15 15 14 14 14 14
18 17 17 17 16 16 16 16 16 16 16 16 16 16 16 16 15 15 15 15 15 15 15 15 15 15 15 15 15 14 14 14 14 14 14 14 14 14 14 14 14 14 14
18 17 17 17 17 16 16 16 16 16 16 16 16 16 16 16 15 15 15 15 15 15 15 15 15 15 14 14 14 14 14 14 14 14 14 14 14 14 14 14 14 14 14
17 17 17 17 17 16 16 16 16 16 16 16 16 16 16 16 15 15 15 15 15 15 15 14 14 14 14 14 14 14 14 14 14 14 14 14 14 14 14 14 14 14 13
17 17 17 17 16 16 16 16 16 16 15 15 15 16 16 15 15 15 15 15 15 15 14 14 14 14 14 14 14 14 14 14 14 14 14 13 13 13 13 13 13 13 13
17 17 17 17 16 16 16 16 16 15 15 15 15 15 15 15 15 15 15 15 15 15 14 14 14 14 14 14 14 14 13 13 13 13 13 13 13 13 13 13 13 13 13
17 17 17 17 16 16 16 16 15 15 15 15 15 15 15 15 15 15 15 15 15 14 14 14 14 14 14 14 14 14 13 13 13 13 13 13 13 13 13 13 13 13 13
17 17 17 16 16 16 16 16 15 15 15 15 15 15 15 15 15 15 15 15 15 15 14 14 14 14 14 14 14 14 13 13 13 13 13 13 13 13 13 13 13 13 13
17 17 17 16 16 16 16 15 15 15 15 15 15 15 15 15 15 15 15 15 15 14 14 14 14 14 14 14 14 14 14 14 13 13 13 12 12 12 12 12 12 12 12
17 16 16 16 16 16 16 15 15 15 15 15 15 15 15 15 14 14 14 14 14 14 14 14 14 14 14 14 14 14 14 14 13 13 13 12 12 12 12 12 12 12 12
17 16 16 16 16 16 15 15 15 15 15 15 15 15 15 14 14 14 14 14 14 14 14 14 14 14 14 14 14 14 14 14 14 13 13 12 12 12 12 12 12 12 12
Wind_Speed
2 2 2 4 5 5 6 6 6 7 8 8 9 9 9 9 9 8 8 8 9 9 9 9 9 9 9 9 9 9 9 9 8 8 8 7 7 6 6 6 6 5 6
2 3 3 4 4 5 6 6 7 7 7 8 8 8 8 8 8 8 8 8 8 8 8 9 9 9 9 9 9 9 9 9 9 9 8 7 6 6 6 6 6 5 6
3 3 3 4 4 5 5 6 6 7 7 8 8 8 7 7 7 8 8 8 8 8 8 8 8 9 9 9 9 10 10 10 9 9 9 7 5 7 7 6 6 6 5
3 3 3 4 4 4 5 6 6 6 7 7 7 7 7 7 7 7 7 8 8 8 8 8 8 9 9 9 9 10 10 10 10 9 8 7 5 6 7 7 7 6 6
3 3 3 4 4 4 4 5 5 5 6 6 7 7 7 7 7 7 7 8 8 8 8 8 8 9 9 9 9 10 10 10 10 9 8 7 5 6 7 7 7 7 7
2 2 2 4 3 3 4 4 4 4 5 5 6 6 6 7 7 7 7 7 7 8 8 8 9 9 9 9 10 10 11 11 10 8 7 6 5 7 8 9 9 8 8
2 2 2 3 3 3 3 3 3 4 4 4 5 5 6 6 6 6 6 7 7 8 8 8 9 9 10 10 11 11 11 10 9 8 7 6 6 9 9 9 9 9 8
2 1 2 3 4 3 3 2 2 3 3 3 4 4 4 5 6 6 6 7 7 8 8 9 9 9 10 11 11 11 11 10 9 8 7 6 7 9 9 9 9 9 9
3 2 1 1 1 2 2 2 2 2 3 3 3 4 4 4 5 5 6 7 7 8 8 9 10 10 11 11 11 11 12 11 9 7 7 6 8 9 9 9 9 9 9
2 2 2 2 1 1 0 1 1 1 2 3 4 4 5 5 5 5 6 6 7 8 9 10 11 11 11 11 11 12 12 11 10 9 7 7 9 9 9 9 9 9 9
1 2 2 2 2 2 1 0 1 2 2 3 4 5 6 6 5 5 6 6 7 9 9 10 11 12 12 12 12 12 11 9 9 8 7 8 8 9 9 9 10 10 10
1 1 1 1 1 2 1 2 3 3 3 4 4 4 5 5 5 6 7 8 9 10 11 11 12 12 11 11 11 11 9 9 8 7 8 9 9 9 9 10 10 11 11
1 0 0 1 1 1 1 2 2 3 3 4 4 4 5 5 6 6 7 7 8 10 9 10 11 10 10 9 9 9 9 9 8 8 8 10 10 10 10 11 11 11 12
1 1 1 0 1 1 1 1 2 2 2 2 3 4 5 4 4 5 5 6 7 7 7 8 8 9 10 10 10 9 9 8 8 8 9 11 11 11 11 12 12 12 13
1 1 0 1 1 1 1 1 1 1 2 2 2 3 4 4 3 4 4 5 6 6 7 6 7 7 8 8 9 9 8 8 9 9 9 12 13 12 12 12 12 13 13
2 1 0 1 1 1 1 1 1 1 1 2 2 3 4 4 4 4 4 4 5 6 7 7 7 6 6 6 7 8 8 8 9 10 10 11 13 13 13 12 12 13 13
2 1 1 2 1 1 1 1 1 1 2 2 1 3 4 5 5 5 4 4 5 7 7 7 7 6 6 6 6 6 7 8 8 9 10 10 10 12 13 13 13 13 13
1 1 1 2 2 2 1 1 1 2 2 2 2 3 5 6 7 6 4 3 6 7 6 5 4 5 5 5 5 5 6 7 8 9 10 10 10 10 12 14 14 14 14
2 2 2 2 2 2 2 2 3 2 2 2 3 2 4 6 7 7 5 5 6 6 4 4 4 4 5 5 5 5 5 5 5 7 8 9 10 11 11 12 14 14 14
2 2 3 3 3 2 2 3 2 3 2 2 2 2 3 5 7 7 5 5 6 4 4 4 5 4 4 4 6 6 5 5 6 6 6 8 9 10 10 11 11 11 13
3 3 2 3 2 2 1 1 1 1 1 2 2 3 4 5 6 7 5 5 5 4 4 5 5 5 3 3 4 4 5 5 6 5 5 6 7 8 9 10 9 9 10
2 2 2 2 2 2 1 1 1 1 1 1 2 3 3 4 5 6 6 4 5 4 5 5 4 3 2 2 3 3 2 4 4 5 4 4 5 7 7 8 9 9 9
2 3 3 2 2 1 2 3 3 3 3 2 2 2 2 3 4 4 6 5 5 5 5 4 5 5 3 1 2 3 3 2 1 3 4 4 4 4 5 7 8 9 9
3 2 2 3 2 2 3 3 3 2 1 0 0 0 1 2 3 4 5 5 5 4 5 5 4 3 4 3 1 2 2 4 3 1 2 3 4 4 4 5 7 8 8
2 2 2 2 2 2 2 3 3 2 1 1 1 2 2 1 2 3 4 4 4 4 4 4 3 3 3 3 3 2 3 3 3 3 1 1 3 3 3 4 5 6 7
1 1 2 3 1 1 2 3 3 3 2 2 1 1 1 1 1 1 2 3 4 3 4 4 4 4 3 3 3 3 3 3 3 3 3 1 1 1 2 3 4 4 6
Wind_Direction
261 228 172 113 99 88 85 87 85 86 88 89 89 90 90 90 92 93 94 93 90 86 85 84 82 82 81 80 80 84 89 87 87 86 86 87 88 88 86 91 91 87 96
194 177 161 124 108 96 86 85 85 87 87 87 89 88 90 91 92 90 91 93 93 90 85 83 82 82 81 80 78 80 85 84 81 77 73 69 76 86 86 88 90 90 96
156 162 159 134 118 108 95 89 86 86 84 84 85 85 87 89 88 89 88 89 89 88 88 85 81 80 81 81 78 78 79 80 79 75 64 49 60 82 82 85 89 92 93
144 151 156 144 128 117 105 96 90 87 85 81 81 83 85 87 86 86 88 88 87 85 85 84 82 81 82 82 80 80 79 76 76 73 59 46 50 80 81 83 85 86 86
125 138 159 149 136 122 109 101 95 92 88 82 79 82 85 88 88 85 85 83 85 85 84 83 82 82 83 83 81 83 82 76 74 67 58 47 46 76 80 81 83 85 83
121 140 173 160 148 134 118 108 104 101 93 84 80 80 83 86 87 86 84 83 84 86 85 84 82 81 85 87 86 87 83 77 70 65 58 50 47 73 78 78 79 78 79
144 159 180 168 161 149 133 115 103 106 101 90 82 80 80 84 85 85 85 84 85 86 86 84 84 83 83 86 87 85 83 78 72 66 58 52 56 69 72 75 78 76 77
141 151 163 169 163 156 141 128 109 100 94 86 80 80 83 85 83 81 85 88 89 89 86 85 83 83 86 85 84 82 77 74 70 62 54 50 62 68 68 69 71 71 73
75 74 61 138 145 149 148 137 121 94 77 73 77 82 85 87 87 85 88 89 91 90 88 85 84 82 85 84 81 78 72 69 62 55 54 49 64 66 68 68 68 66 67
63 56 47 50 63 71 96 130 120 88 72 68 67 73 78 79 74 77 79 83 91 93 90 87 84 81 80 81 81 77 71 63 55 48 44 53 65 66 68 70 71 69 65
51 19 28 40 34 39 40 40 56 45 58 64 63 63 68 68 63 62 69 83 93 93 89 86 83 78 75 74 75 73 66 57 53 43 40 55 67 71 70 70 70 70 68
292 307 347 356 8 28 48 43 40 42 49 59 66 63 68 71 68 67 65 82 87 85 81 80 77 73 70 66 64 63 60 54 48 38 41 53 63 72 74 72 71 70 68
226 263 257 277 338 44 45 44 53 54 54 60 67 72 75 72 70 67 65 68 73 76 74 72 68 67 68 68 66 61 58 53 44 36 37 49 58 67 73 73 71 72 68
156 226 268 135 68 55 76 63 73 73 64 65 76 85 86 77 70 71 73 74 73 77 77 75 74 72 69 68 69 65 57 53 44 36 36 49 58 65 74 76 74 74 70
191 222 253 87 74 59 78 67 83 85 88 97 91 97 110 105 97 89 88 88 85 86 85 81 77 72 69 67 67 66 58 53 47 42 38 50 56 60 67 75 76 74 73
217 220 204 123 100 91 102 115 107 108 116 107 103 116 123 122 117 109 102 95 90 92 90 86 82 80 74 71 64 59 55 53 50 47 43 45 52 59 62 67 72 73 74
215 198 194 167 112 109 110 117 98 110 123 113 103 128 132 130 127 121 113 107 103 102 99 92 83 80 78 73 64 57 55 54 54 50 47 44 47 54 59 63 65 69 73
158 154 191 152 114 90 81 74 75 90 96 93 110 131 133 136 136 127 121 119 116 107 101 96 87 83 78 76 69 56 53 52 52 53 52 49 48 50 55 59 62 64 68
148 139 117 96 106 105 80 62 56 67 81 84 90 110 132 138 143 136 130 127 123 110 102 105 92 99 97 88 79 62 52 47 44 52 51 50 51 52 52 53 57 59 63
113 114 114 94 87 87 67 59 51 48 44 62 78 93 123 138 141 134 129 133 129 118 110 107 105 92 97 100 90 71 53 46 45 45 46 48 51 52 53 51 50 52 56
91 101 110 99 95 101 79 78 73 50 29 42 60 83 115 133 139 135 136 138 137 134 135 129 117 105 93 101 87 64 43 44 46 39 40 46 47 50 53 52 50 49 48
127 135 127 126 125 125 125 126 118 110 73 64 45 61 82 114 130 143 145 151 145 133 133 139 130 119 113 97 108 98 50 22 25 32 34 44 42 46 50 52 52 50 48
169 182 167 155 130 110 93 85 71 57 47 41 34 37 51 98 118 129 146 150 152 152 159 161 152 140 145 108 88 132 135 173 25 16 28 38 40 43 41 48 51 50 50
204 188 162 148 130 105 104 108 111 105 109 232 309 8 45 93 114 127 143 152 157 159 163 174 168 151 144 152 100 70 113 140 137 86 13 18 36 43 36 47 46 47 49
184 170 156 134 122 114 119 123 120 106 114 70 43 50 36 38 95 127 147 156 159 165 172 173 171 166 159 159 155 138 102 81 98 133 136 2 22 28 37 44 45 44 44
117 125 136 135 146 143 130 127 135 132 124 104 74 68 22 8 21 89 151 170 174 172 178 183 181 176 176 164 161 158 155 151 159 145 149 150 80 0 24 41 41 39 44
Height
1528 1527 1527 1526 1526 1525 1525 1525 1525 1525 1525 1525 1525 1525 1525 1525 1525 1525 1526 1526 1526 1526 1527 1527 1527 1527 1527 1527 1527 1527 1527 1528 1528 1528 1528 1528 1528 1529 1529 1528 1528 1528 1529
1528 1528 1527 1527 1527 1526 1526 1526 1526 1526 1526 1526 1526 1526 1526 1526 1526 1526 1527 1527 1527 1527 1528 1528 1528 1528 1528 1528 1528 1528 1528 1529 1529 1529 1529 1529 1529 1529 1529 1529 1529 1529 1529
1529 1529 1528 1528 1528 1528 1527 1527 1527 1527 1527 1527 1527 1527 1527 1527 1527 1527 1528 1528 1528 1528 1528 1529 1529 1529 1529 1529 1529 1529 1529 1529 1529 1529 1529 1529 1529 1529 1529 1529 1529 1530 1530
1530 1529 1529 1529 1529 1529 1529 1528 1528 1528 1528 1528 1528 1528 1528 1528 1528 1528 1529 1529 1529 1529 1529 1530 1530 1530 1530 1530 1530 1530 1530 1530 1530 1530 1530 1529 1529 1530 1530 1530 1530 1530 1530
1530 1530 1530 1530 1530 1530 1530 1530 1529 1529 1529 1529 1529 1529 1529 1529 1529 1529 1530 1530 1530 1530 1530 1530 1531 1531 1531 1531 1531 1531 1531 1531 1531 1531 1531 1531 1530 1530 1531 1531 1531 1531 1531
1531 1531 1531 1531 1531 1531 1531 1531 1531 1531 1530 1530 1530 1530 1530 1530 1530 1530 1530 1531 1531 1531 1531 1531 1532 1532 1532 1532 1532 1532 1532 1532 1532 1532 1532 1532 1532 1532 1532 1532 1532 1532 1532
1532 1532 1532 1532 1532 1532 1532 1532 1532 1532 1532 1532 1531 1531 1531 1531 1531 1531 1531 1532 1532 1532 1532 1532 1533 1533 1533 1533 1533 1533 1533 1533 1533 1533 1533 1533 1533 1533 1533 1533 1533 1533 1533
1533 1533 1532 1533 1533 1533 1533 1533 1533 1533 1533 1533 1533 1533 1532 1532 1532 1532 1533 1533 1533 1533 1533 1534 1534 1534 1534 1534 1534 1535 1535 1535 1535 1534 1534 1534 1534 1534 1534 1534 1534 1534 1534
1534 1533 1533 1533 1533 1534 1534 1534 1534 1534 1534 1534 1534 1534 1534 1533 1533 1533 1534 1534 1534 1534 1535 1535 1535 1535 1535 1535 1536 1536 1536 1536 1536 1536 1536 1536 1536 1536 1535 1535 1535 1535 1535
1535 1535 1534 1534 1534 1534 1534 1535 1535 1534 1534 1534 1534 1534 1534 1534 1534 1534 1535 1535 1535 1536 1536 1536 1536 1536 1536 1537 1537 1537 1537 1537 1537 1537 1537 1537 1537 1537 1537 1536 1536 1536 1536
1536 1535 1535 1535 1535 1535 1535 1535 1535 1535 1535 1535 1535 1535 1535 1535 1535 1535 1536 1536 1537 1537 1537 1538 1538 1538 1538 1538 1538 1539 1539 1539 1538 1538 1538 1538 1538 1538 1538 1538 1537 1537 1537
1536 1536 1536 1536 1535 1535 1535 1535 1536 1536 1536 1536 1536 1536 1536 1536 1536 1537 1537 1537 1538 1538 1539 1539 1539 1539 1540 1540 1540 1540 1540 1540 1540 1540 1540 1540 1539 1539 1539 1539 1538 1538 1538
1537 1537 1536 1536 1536 1536 1536 1536 1536 1536 1536 1537 1537 1537 1537 1537 1538 1538 1538 1539 1539 1540 1540 1541 1541 1541 1541 1541 1541 1541 1541 1542 1541 1541 1541 1541 1541 1541 1540 1540 1540 1539 1539
1537 1537 1537 1537 1536 1536 1536 1536 1536 1537 1537 1537 1538 1538 1538 1538 1539 1539 1539 1540 1541 1541 1542 1542 1543 1543 1543 1543 1543 1543 1543 1543 1543 1543 1542 1542 1542 1542 1542 1541 1541 1541 1541
1537 1537 1537 1537 1536 1536 1536 1536 1537 1537 1537 1538 1538 1539 1539 1539 1539 1540 1540 1541 1542 1542 1543 1543 1544 1544 1544 1545 1545 1545 1545 1545 1545 1544 1544 1544 1544 1544 1543 1543 1543 1542 1542
1538 1538 1538 1537 1537 1537 1537 1536 1537 1537 1537 1538 1539 1539 1540 1540 1540 1541 1542 1542 1543 1543 1544 1545 1545 1545 1546 1546 1546 1546 1546 1546 1546 1546 1546 1546 1546 1545 1545 1545 1545 1544 1544
1538 1538 1538 1537 1537 1537 1537 1537 1537 1537 1537 1538 1539 1539 1540 1540 1541 1542 1542 1543 1544 1544 1545 1545 1546 1547 1547 1547 1547 1548 1548 1548 1548 1548 1548 1547 1547 1547 1547 1546 1546 1546 1546
1538 1538 1538 1537 1537 1537 1537 1537 1537 1537 1538 1538 1539 1540 1540 1541 1541 1542 1543 1544 1545 1545 1546 1546 1547 1548 1548 1548 1549 1549 1549 1549 1549 1550 1550 1549 1549 1549 1549 1548 1548 1548 1548
1537 1537 1537 1537 1537 1537 1537 1537 1537 1538 1538 1539 1539 1540 1540 1541 1542 1543 1543 1544 1545 1546 1546 1547 1548 1549 1549 1550 1550 1550 1550 1551 1551 1551 1551 1551 1551 1551 1551 1550 1550 1550 1550
1537 1537 1537 1537 1537 1538 1537 1537 1537 1538 1538 1539 1539 1540 1540 1541 1542 1543 1544 1545 1546 1546 1547 1548 1549 1549 1550 1551 1551 1551 1552 1552 1552 1552 1552 1552 1553 1553 1552 1552 1552 1552 1551
1537 1537 1537 1537 1537 1537 1537 1537 1537 1537 1538 1539 1539 1540 1541 1541 1542 1543 1544 1545 1546 1547 1548 1549 1549 1550 1551 1552 1552 1552 1553 1553 1554 1554 1554 1554 1554 1554 1554 1554 1554 1554 1553
1536 1536 1537 1537 1537 1537 1537 1537 1538 1538 1538 1539 1540 1540 1541 1542 1542 1543 1544 1545 1546 1547 1548 1549 1550 1550 1551 1552 1553 1553 1554 1556 1555 1555 1555 1555 1555 1555 1555 1556 1556 1555 1555
1536 1536 1537 1537 1537 1537 1538 1538 1538 1538 1538 1539 1539 1540 1541 1541 1542 1543 1544 1545 1546 1547 1548 1549 1550 1551 1551 1552 1553 1554 1554 1555 1556 1556 1556 1556 1556 1556 1556 1557 1557 1557 1556
1535 1536 1536 1537 1537 1538 1538 1538 1538 1538 1538 1538 1539 1539 1540 1541 1542 1543 1544 1545 1546 1547 1548 1549 1550 1551 1551 1552 1553 1553 1554 1554 1555 1556 1557 1557 1557 1557 1557 1557 1557 1557 1557
1534 1535 1536 1536 1537 1537 1537 1538 1538 1538 1538 1539 1539 1539 1540 1541 1541 1542 1543 1544 1545 1546 1547 1548 1549 1550 1551 1552 1552 1553 1554 1554 1555 1555 1556 1557 1557 1557 1558 1558 1558 1558 1558
1533 1534 1535 1535 1536 1537 1537 1538 1538 1538 1538 1538 1538 1539 1539 1540 1541 1541 1542 1543 1544 1545 1546 1547 1548 1549 1550 1551 1552 1552 1553 1553 1554 1555 1555 1556 1557 1558 1558 1558 1558 1559 1559